GW2316 Weather Reports


time (UTC)temp
F
wind
direction
speed
knots
gust
knots
rain 1hr
in
rain 24hr
in
rain mn
in
humidity
%
barometer
mb
20260507172006 63 356 0.0 2.6 0.01 0.01 0.01 74 1011.2
20260507171519 63 356 0.0 2.6 0.01 0.01 0.01 68 1011.3
20260507171008 64 352 0.0 3.5 0.01 0.01 0.01 68 1011.3
20260507170504 64 15 0.9 3.5 0.00 0.00 0.00 65 1011.4
20260507170015 64 69 0.0 1.7 0.00 0.00 0.00 60 1011.5
20260507165504 64 69 0.0 1.7 0.00 0.00 0.00 58 1011.5
20260507165002 65 69 0.0 1.7 0.00 0.00 0.00 58 1011.5
20260507164509 65 69 0.0 2.6 0.00 0.00 0.00 58 1011.5
20260507164009 65 69 0.0 2.6 0.00 0.00 0.00 57 1011.5
20260507163505 65 107 0.0 1.7 0.00 0.00 0.00 57 1011.5
20260507163008 65 98 0.0 4.3 0.00 0.00 0.00 59 1011.4
20260507162506 65 99 0.0 4.3 0.00 0.00 0.00 57 1011.4
20260507162006 65 106 0.9 4.3 0.00 0.00 0.00 57 1011.4
20260507161509 65 79 0.9 7.8 0.00 0.00 0.00 56 1011.3
20260507161007 65 94 2.6 7.8 0.00 0.00 0.00 58 1011.2
20260507160508 65 117 0.9 8.7 0.00 0.00 0.00 59 1011.2
20260507160024 65 90 2.6 8.7 0.00 0.00 0.00 58 1011.2
20260507155505 66 29 0.9 8.7 0.00 0.00 0.00 57 1011.0
20260507155007 66 55 3.5 9.6 0.00 0.00 0.00 57 1011.0
20260507154524 66 79 4.3 9.6 0.00 0.00 0.00 56 1011.0
20260507154005 66 106 2.6 9.6 0.00 0.00 0.00 55 1011.1
20260507153504 66 60 4.3 9.6 0.00 0.00 0.00 55 1011.1
20260507153010 67 84 5.2 9.6 0.00 0.00 0.00 55 1011.0
20260507152507 67 134 3.5 9.6 0.00 0.00 0.00 55 1011.2
20260507152007 67 125 2.6 7.8 0.00 0.00 0.00 54 1011.2
20260507151516 67 27 1.7 10.4 0.00 0.00 0.00 56 1011.2
20260507151006 68 106 2.6 10.4 0.00 0.00 0.00 54 1011.2
20260507150507 68 59 4.3 9.6 0.00 0.00 0.00 53 1011.3
20260507150014 68 112 0.9 11.3 0.00 0.00 0.00 54 1011.2
20260507145508 68 61 4.3 11.3 0.00 0.00 0.00 51 1011.3
20260507145006 69 76 3.5 13.0 0.00 0.00 0.00 55 1011.2
20260507144508 69 61 3.5 13.0 0.00 0.00 0.00 52 1011.3
20260507144007 69 25 4.3 9.6 0.00 0.00 0.00 53 1011.3
20260507143511 68 94 1.7 11.3 0.00 0.00 0.00 51 1011.4
20260507143027 68 60 6.1 11.3 0.00 0.00 0.00 53 1011.5
20260507142505 68 127 6.1 12.2 0.00 0.00 0.00 54 1011.6
20260507142008 68 104 7.0 12.2 0.00 0.00 0.00 51 1011.6
20260507141513 68 104 5.2 11.3 0.00 0.00 0.00 53 1011.6
20260507141007 68 19 4.3 11.3 0.00 0.00 0.00 54 1011.7
20260507140507 68 108 3.5 9.6 0.00 0.00 0.00 58 1011.7
20260507140021 68 113 3.5 11.3 0.00 0.00 0.00 55 1011.7
20260507135508 68 80 4.3 11.3 0.00 0.00 0.00 56 1011.8
20260507135006 68 100 2.6 10.4 0.00 0.00 0.00 58 1012.0
20260507134521 68 110 5.2 10.4 0.00 0.00 0.00 55 1012.1
20260507134012 68 84 3.5 13.9 0.00 0.00 0.00 59 1012.1
20260507133510 67 79 4.3 13.9 0.00 0.00 0.00 57 1012.1
20260507133018 67 86 7.0 12.2 0.00 0.00 0.00 57 1012.1
20260507132506 67 96 6.1 10.4 0.00 0.00 0.00 55 1012.1
20260507132010 67 77 5.2 9.6 0.00 0.00 0.00 54 1012.2
20260507131511 67 104 5.2 9.6 0.00 0.00 0.00 52 1012.2
20260507131006 67 93 5.2 9.6 0.00 0.00 0.00 53 1012.2
20260507130507 66 71 1.7 9.6 0.00 0.00 0.00 58 1012.2
20260507130011 66 90 3.5 10.4 0.00 0.00 0.00 54 1012.3
20260507125502 66 118 2.6 12.2 0.00 0.00 0.00 59 1012.4
20260507125003 66 69 6.1 12.2 0.00 0.00 0.00 59 1012.4
20260507124503 66 95 4.3 11.3 0.00 0.00 0.00 58 1012.5
20260507124004 66 94 5.2 10.4 0.00 0.00 0.00 59 1012.6
20260507123503 66 112 4.3 11.3 0.00 0.00 0.00 56 1012.7
20260507123004 66 67 2.6 11.3 0.00 0.00 0.00 59 1012.7
20260507122503 66 59 4.3 8.7 0.00 0.00 0.00 60 1012.8
20260507122004 66 111 4.3 9.6 0.00 0.00 0.00 60 1012.8
20260507121504 66 52 6.1 9.6 0.00 0.00 0.00 59 1012.9
20260507121003 66 117 5.2 8.7 0.00 0.00 0.00 57 1012.9
20260507120507 66 65 4.3 9.6 0.00 0.00 0.00 60 1012.9
20260507120014 65 56 1.7 9.6 0.00 0.00 0.00 60 1012.9
20260507115504 65 81 3.5 10.4 0.00 0.00 0.00 62 1012.9
20260507115007 65 50 5.2 10.4 0.00 0.00 0.00 63 1012.9
20260507114516 65 69 3.5 8.7 0.00 0.00 0.00 63 1013.0
20260507114003 65 96 2.6 8.7 0.00 0.00 0.00 67 1012.9
20260507113502 64 306 4.3 7.0 0.00 0.00 0.00 64 1013.1
20260507113004 64 49 3.5 10.4 0.00 0.00 0.00 64 1013.1
20260507112508 64 122 3.5 10.4 0.00 0.00 0.00 64 1013.2
20260507112004 64 61 1.7 8.7 0.00 0.00 0.00 61 1013.2
20260507111510 64 67 3.5 9.6 0.00 0.00 0.00 60 1013.3
20260507111003 64 90 2.6 9.6 0.00 0.00 0.00 63 1013.3
20260507110505 64 39 3.5 8.7 0.00 0.00 0.00 63 1013.4
20260507110016 64 106 4.3 8.7 0.00 0.00 0.00 60 1013.4
20260507105507 64 70 2.6 7.8 0.00 0.00 0.00 60 1013.4
20260507105007 64 59 5.2 8.7 0.00 0.00 0.00 64 1013.4
20260507104504 63 43 3.5 8.7 0.00 0.00 0.00 64 1013.4
20260507104004 63 75 3.5 9.6 0.00 0.00 0.00 62 1013.5
20260507103508 63 75 4.3 12.2 0.00 0.00 0.00 62 1013.5
20260507103003 63 83 2.6 12.2 0.00 0.00 0.00 62 1013.6
20260507102505 63 40 7.0 12.2 0.00 0.00 0.00 65 1013.6
20260507102006 62 81 4.3 10.4 0.00 0.00 0.00 62 1013.6
20260507101508 62 117 2.6 11.3 0.00 0.00 0.00 62 1013.7
20260507101004 62 79 6.1 11.3 0.00 0.00 0.00 65 1013.7
20260507100503 62 38 4.3 8.7 0.00 0.00 0.00 67 1013.7
20260507100030 62 90 3.5 7.8 0.00 0.00 0.00 64 1013.7
20260507095504 62 81 2.6 10.4 0.00 0.00 0.00 65 1013.7
20260507095003 62 85 2.6 10.4 0.00 0.00 0.00 67 1013.9
20260507094521 61 108 1.7 8.7 0.00 0.00 0.00 67 1013.8
20260507094007 61 64 2.6 9.6 0.00 0.00 0.00 67 1013.9
20260507093504 61 119 3.5 9.6 0.00 0.00 0.00 66 1013.9
20260507093027 61 123 3.5 9.6 0.00 0.00 0.00 67 1013.9
20260507092507 60 75 1.7 9.6 0.00 0.00 0.00 70 1014.0
20260507092007 60 109 3.5 9.6 0.00 0.00 0.00 72 1014.0
20260507091508 60 69 4.3 9.6 0.00 0.00 0.00 72 1013.9
20260507091008 60 102 6.1 12.2 0.00 0.00 0.00 70 1013.9
20260507090505 60 126 5.2 12.2 0.00 0.00 0.00 73 1013.9
20260507090007 59 69 6.1 11.3 0.00 0.00 0.00 73 1013.9
20260507085504 59 108 4.3 8.7 0.00 0.00 0.00 70 1014.0
20260507085009 59 117 2.6 9.6 0.00 0.00 0.00 72 1013.9
20260507084513 59 82 3.5 9.6 0.00 0.00 0.00 71 1013.9
20260507084004 59 112 2.6 9.6 0.00 0.00 0.00 72 1013.9
20260507083507 58 81 5.2 9.6 0.00 0.00 0.00 73 1013.9
20260507083033 58 140 3.5 7.8 0.00 0.00 0.00 70 1014.0
20260507082506 59 134 2.6 7.8 0.00 0.00 0.00 72 1014.1
20260507082007 59 90 4.3 7.8 0.00 0.00 0.00 70 1014.2
20260507081528 58 115 0.9 7.0 0.00 0.00 0.00 74 1014.1
20260507081007 58 111 1.7 7.0 0.00 0.00 0.00 72 1014.1
20260507080504 57 89 3.5 8.7 0.00 0.00 0.00 73 1014.2
20260507080017 57 93 2.6 8.7 0.00 0.00 0.00 72 1014.2
20260507075506 57 75 0.9 7.8 0.00 0.00 0.00 73 1014.2
20260507075011 57 116 3.5 7.8 0.00 0.00 0.00 73 1014.2
20260507074525 56 92 2.6 7.8 0.00 0.00 0.00 74 1014.2
20260507074007 56 106 1.7 6.1 0.00 0.00 0.00 75 1014.2
20260507073506 56 75 2.6 6.1 0.00 0.00 0.00 78 1014.2
20260507073008 55 89 0.9 5.2 0.00 0.00 0.00 80 1014.2
20260507072509 54 99 2.6 5.2 0.00 0.00 0.00 82 1014.2
20260507072006 53 201 0.0 0.0 0.00 0.00 0.00 85 1014.2
20260507071523 52 201 0.0 0.0 0.00 0.00 0.00 85 1014.2
20260507071008 52 201 0.0 0.0 0.00 0.00 0.00 85 1014.2
20260507070507 51 201 0.0 0.0 0.00 0.00 0.00 85 1014.3
20260507070026 51 201 0.0 0.0 0.00 0.00 0.00 85 1014.2
20260507065512 51 201 0.0 0.0 0.00 0.00 0.00 86 1014.2
20260507065008 51 201 0.0 0.0 0.00 0.00 0.00 86 1014.2
20260507064525 50 201 0.0 0.0 0.00 0.00 0.00 86 1014.2
20260507064007 50 201 0.0 0.0 0.00 0.00 0.00 87 1014.2
20260507063504 49 201 0.0 0.0 0.00 0.00 0.00 88 1014.3
20260507063015 48 201 0.0 0.0 0.00 0.00 0.00 89 1014.2
20260507062505 48 201 0.0 0.0 0.00 0.00 0.00 89 1014.3
20260507062008 47 201 0.0 0.0 0.00 0.00 0.00 89 1014.3
20260507061518 47 201 0.0 0.0 0.00 0.00 0.00 91 1014.3
20260507061010 46 201 0.0 0.0 0.00 0.00 0.00 91 1014.3
20260507060504 46 201 0.0 2.6 0.00 0.00 0.00 92 1014.3
20260507060004 46 201 0.0 2.6 0.00 0.00 0.00 93 1014.3
20260507055503 45 252 0.0 0.9 0.00 0.00 0.00 94 1014.3
20260507055002 45 252 0.0 0.9 0.00 0.00 0.00 95 1014.3
20260507054507 44 252 0.0 0.9 0.00 0.00 0.00 96 1014.2
20260507054004 44 255 0.0 0.9 0.00 0.00 0.00 96 1014.2
20260507053503 44 255 0.0 0.9 0.00 0.00 0.00 96 1014.1
20260507053008 43 256 0.0 0.9 0.00 0.00 0.00 95 1014.1
20260507052506 43 273 0.0 0.9 0.00 0.00 0.00 95 1014.0
20260507052003 43 273 0.0 0.9 0.00 0.00 0.00 95 1014.0
20260507051504 43 273 0.0 0.9 0.00 0.00 0.00 95 1014.0
20260507051010 43 273 0.0 0.9 0.00 0.00 0.00 95 1013.9
20260507050504 43 273 0.0 0.9 0.00 0.00 0.00 96 1013.9
20260507050004 43 273 0.0 0.0 0.00 0.00 0.00 96 1013.8
20260507045503 43 273 0.0 0.0 0.00 0.00 0.00 95 1013.8
20260507045004 43 274 0.0 0.0 0.00 0.00 0.00 95 1013.8
20260507044505 43 274 0.0 0.9 0.00 0.00 0.00 95 1013.8
20260507044009 43 274 0.0 0.9 0.00 0.00 0.00 95 1013.7
20260507043503 43 273 0.0 0.9 0.00 0.00 0.00 95 1013.8
20260507043008 44 273 0.0 0.0 0.00 0.00 0.00 95 1013.7
20260507042503 44 274 0.0 0.0 0.00 0.00 0.00 95 1013.8
20260507042004 44 273 0.0 0.0 0.00 0.00 0.00 95 1013.8
20260507041528 44 273 0.0 0.9 0.00 0.00 0.00 95 1013.8
20260507041007 44 274 0.0 0.9 0.00 0.00 0.00 95 1013.8
20260507040504 44 274 0.0 0.9 0.00 0.00 0.00 95 1013.9
20260507040013 44 273 0.0 0.9 0.00 0.00 0.00 95 1013.9
20260507035507 44 274 0.0 0.9 0.00 0.00 0.00 95 1013.8
20260507035003 44 273 0.0 0.0 0.00 0.00 0.00 95 1013.9
20260507034506 44 273 0.0 0.0 0.00 0.00 0.00 95 1013.8
20260507034003 44 273 0.0 1.7 0.00 0.00 0.00 95 1013.8
20260507033502 44 273 0.0 1.7 0.00 0.00 0.00 95 1013.8
20260507033006 44 277 0.0 0.9 0.00 0.00 0.00 95 1013.8
20260507032504 44 277 0.0 0.9 0.00 0.00 0.00 95 1013.9
20260507032005 44 277 0.0 0.9 0.00 0.00 0.00 95 1013.8
20260507031512 44 277 0.0 1.7 0.00 0.00 0.00 95 1013.8
20260507031005 44 277 0.0 1.7 0.00 0.00 0.00 94 1013.9
20260507030505 45 277 0.0 1.7 0.00 0.00 0.00 94 1013.9
20260507030018 45 277 0.0 1.7 0.00 0.00 0.00 95 1013.9
20260507025502 45 277 0.0 1.7 0.00 0.00 0.00 95 1013.9
20260507025006 45 277 0.0 1.7 0.00 0.00 0.00 95 1013.8
20260507024520 45 277 0.0 0.9 0.00 0.00 0.00 95 1013.9
20260507024008 45 277 0.0 0.9 0.00 0.00 0.00 94 1013.9
20260507023502 45 277 0.0 0.9 0.00 0.00 0.00 94 1014.0
20260507023004 45 277 0.0 0.9 0.00 0.00 0.00 94 1014.0
20260507022502 45 277 0.0 0.0 0.00 0.00 0.00 94 1014.0
20260507022002 45 277 0.0 0.0 0.00 0.00 0.00 94 1014.1
20260507021511 45 277 0.0 0.9 0.00 0.00 0.00 94 1014.1
20260507021007 45 277 0.0 1.7 0.00 0.00 0.00 94 1014.1
20260507020506 45 277 0.0 2.6 0.00 0.00 0.00 94 1014.1
20260507020007 46 277 0.0 2.6 0.00 0.00 0.00 95 1014.1
20260507015508 45 279 0.9 2.6 0.00 0.00 0.00 95 1014.2
20260507015006 45 280 0.0 0.9 0.00 0.00 0.00 94 1014.1
20260507014520 45 280 0.0 0.9 0.00 0.00 0.00 94 1014.1
20260507014002 46 280 0.0 0.0 0.00 0.00 0.00 94 1014.2
20260507013506 46 280 0.0 0.9 0.00 0.00 0.00 94 1014.3
20260507013032 46 280 0.0 0.9 0.00 0.00 0.00 95 1014.3
20260507012503 46 280 0.0 0.9 0.00 0.00 0.00 94 1014.3
20260507012007 45 280 0.0 0.0 0.00 0.00 0.00 94 1014.3
20260507011535 46 280 0.0 0.9 0.00 0.00 0.00 94 1014.4
20260507011005 46 280 0.0 0.9 0.00 0.00 0.00 94 1014.4
20260507010505 46 280 0.0 1.7 0.00 0.00 0.00 94 1014.5
20260507010010 46 281 0.0 1.7 0.00 0.00 0.00 94 1014.5
20260507005507 46 285 0.0 1.7 0.00 0.00 0.00 94 1014.6
20260507005006 46 294 0.0 0.9 0.00 0.00 0.00 94 1014.7
20260507004518 46 294 0.0 0.9 0.00 0.00 0.00 94 1014.8
20260507004006 46 294 0.0 0.9 0.00 0.00 0.00 94 1014.8
20260507003507 46 294 0.0 1.7 0.00 0.00 0.00 94 1014.9
20260507003018 46 294 0.0 1.7 0.00 0.00 0.00 94 1014.9
20260507002507 46 296 0.0 0.9 0.00 0.00 0.00 94 1014.9
20260507002009 46 296 0.0 0.0 0.00 0.00 0.00 93 1015.0
20260507001529 46 296 0.0 0.9 0.00 0.00 0.00 93 1015.0
20260507001008 46 296 0.0 0.9 0.00 0.00 0.00 93 1015.1
20260507000514 46 296 0.0 0.9 0.00 0.00 0.00 93 1015.1
20260507000026 47 296 0.0 0.9 0.00 0.00 0.00 93 1015.1
20260506235504 47 296 0.0 0.9 0.00 0.00 0.00 94 1015.1
20260506235006 47 296 0.0 0.9 0.00 0.00 0.00 94 1015.1
20260506234513 47 296 0.0 0.9 0.00 0.00 0.00 94 1015.1
20260506234006 47 296 0.0 0.9 0.00 0.00 0.00 94 1015.1
20260506233507 47 296 0.0 1.7 0.00 0.00 0.00 94 1015.1
20260506233020 47 296 0.0 1.7 0.00 0.00 0.00 93 1015.2
20260506232507 47 298 0.0 1.7 0.00 0.00 0.00 93 1015.2
20260506232011 47 299 0.0 0.0 0.00 0.00 0.00 92 1015.2
20260506231519 47 299 0.0 0.0 0.00 0.00 0.00 92 1015.2
20260506231009 47 299 0.0 0.0 0.00 0.00 0.00 92 1015.2
20260506230506 48 299 0.0 0.9 0.00 0.00 0.00 92 1015.2
20260506230026 48 299 0.0 0.9 0.00 0.00 0.00 92 1015.2
20260506225507 48 298 0.0 0.0 0.00 0.00 0.00 92 1015.3
20260506225010 48 298 0.0 0.0 0.00 0.00 0.00 93 1015.3
20260506224530 48 298 0.0 0.0 0.00 0.00 0.00 93 1015.3
20260506224009 48 298 0.0 0.0 0.00 0.00 0.00 93 1015.3
20260506223503 48 298 0.0 0.0 0.00 0.00 0.00 92 1015.3
20260506223016 48 298 0.0 0.0 0.00 0.00 0.00 92 1015.3
20260506222504 49 298 0.0 0.9 0.00 0.00 0.00 92 1015.2
20260506222007 49 298 0.0 0.9 0.00 0.00 0.00 92 1015.3
20260506221522 49 298 0.0 0.0 0.00 0.00 0.00 92 1015.3
20260506221008 49 299 0.0 0.9 0.00 0.00 0.00 93 1015.3
20260506220506 49 299 0.0 0.9 0.00 0.00 0.00 93 1015.4
20260506220022 49 299 0.0 0.9 0.00 0.00 0.00 93 1015.3
20260506215507 49 298 0.0 0.9 0.00 0.00 0.00 93 1015.3
20260506215010 49 298 0.0 0.9 0.00 0.00 0.00 92 1015.4
20260506214521 49 299 0.0 0.9 0.00 0.00 0.00 92 1015.4
20260506214008 49 299 0.0 0.9 0.00 0.00 0.00 92 1015.3
20260506213511 49 299 0.0 1.7 0.00 0.00 0.00 92 1015.4
20260506213021 49 299 0.0 1.7 0.00 0.00 0.00 92 1015.3
20260506212510 49 299 0.0 1.7 0.00 0.00 0.00 92 1015.3
20260506212008 49 299 0.9 1.7 0.00 0.00 0.00 91 1015.3
20260506211518 49 298 0.0 0.9 0.00 0.00 0.00 91 1015.3
20260506211005 49 299 0.0 0.9 0.00 0.00 0.00 91 1015.3
20260506210506 49 299 0.0 0.0 0.00 0.00 0.00 91 1015.3
20260506210027 49 299 0.0 0.0 0.00 0.00 0.00 90 1015.3
20260506205506 50 299 0.0 0.0 0.00 0.00 0.00 90 1015.3
20260506205006 50 299 0.0 0.9 0.00 0.00 0.00 90 1015.3
20260506204507 50 299 0.0 0.9 0.00 0.00 0.00 90 1015.3
20260506204009 50 299 0.0 0.9 0.00 0.00 0.00 90 1015.2
20260506203505 50 298 0.0 0.9 0.00 0.00 0.00 90 1015.2
20260506203007 50 298 0.0 0.0 0.00 0.00 0.00 89 1015.1
20260506202502 50 299 0.0 0.0 0.00 0.00 0.00 89 1015.1
20260506202007 50 298 0.0 0.9 0.00 0.00 0.00 88 1015.1
20260506201504 51 299 0.0 0.9 0.00 0.00 0.00 88 1015.0
20260506201004 51 298 0.0 0.9 0.00 0.00 0.00 88 1015.0
20260506200507 51 298 0.0 0.0 0.00 0.00 0.00 88 1015.0
20260506200018 51 299 0.0 0.0 0.00 0.00 0.00 86 1015.0
20260506195503 51 299 0.0 0.9 0.00 0.00 0.00 86 1014.9
20260506195006 52 298 0.0 0.9 0.00 0.00 0.00 85 1014.9
20260506194503 52 299 0.0 0.0 0.00 0.00 0.00 85 1014.9
20260506194003 52 298 0.0 0.9 0.00 0.00 0.00 85 1014.8
20260506193503 53 298 0.0 1.7 0.00 0.00 0.00 84 1014.6
20260506193006 53 299 0.0 2.6 0.00 0.00 0.00 83 1014.6
20260506192503 53 299 0.0 2.6 0.00 0.00 0.00 83 1014.6
20260506192003 53 298 0.9 4.3 0.00 0.00 0.00 82 1014.5
20260506191517 54 298 1.7 4.3 0.00 0.00 0.00 82 1014.4
20260506191007 54 295 0.9 4.3 0.00 0.00 0.00 81 1014.4
20260506190508 54 302 0.9 5.2 0.00 0.00 0.00 80 1014.3
20260506190008 54 304 0.9 6.1 0.00 0.00 0.00 80 1014.3
20260506185504 55 264 1.7 8.7 0.00 0.00 0.00 79 1014.3
20260506185009 55 273 2.6 8.7 0.00 0.00 0.00 79 1014.2
20260506184507 55 301 2.6 7.8 0.00 0.00 0.00 78 1014.2
20260506184003 56 291 4.3 7.8 0.00 0.00 0.00 78 1014.2
20260506183508 56 288 0.9 8.7 0.00 0.00 0.00 77 1014.1
20260506183005 56 294 3.5 8.7 0.00 0.00 0.00 76 1014.1
20260506182503 57 274 4.3 8.7 0.00 0.00 0.00 75 1014.0
20260506182005 57 281 3.5 8.7 0.00 0.00 0.00 75 1014.0
20260506181512 57 306 3.5 8.7 0.00 0.00 0.00 75 1014.0
20260506181004 58 282 1.7 10.4 0.00 0.00 0.00 74 1013.9
20260506180506 58 268 1.7 10.4 0.00 0.00 0.00 73 1013.9
20260506180016 58 267 3.5 7.8 0.00 0.00 0.00 72 1013.8
20260506175507 58 302 3.5 11.3 0.00 0.00 0.00 72 1013.8
20260506175003 58 312 5.2 11.3 0.00 0.00 0.00 71 1013.8
20260506174518 58 281 6.1 11.3 0.00 0.00 0.00 71 1013.8
20260506174007 59 246 5.2 12.2 0.00 0.00 0.00 70 1013.8
20260506173508 59 280 3.5 12.2 0.00 0.00 0.00 70 1013.7
20260506173016 58 302 7.0 11.3 0.00 0.00 0.00 71 1013.8
20260506172507 57 316 6.1 13.0 0.00 0.00 0.00 76 1013.7